Kosmos-894

operational
NORAD ID: 9846 Int'l Des: 1977-013 Owner: VMF Country: SU
LEOCIRCULARPOLAR

Über Kosmos-894

Beschreibung wird geladen...

Live-Position

3D-Globus wird geladen...

Nächste Überflüge

Höhenverlauf

Altitude vs Time

uPlot chart will show altitude changes over time

Zweizeiliger Elementsatz

1 9846U 77013A 26061.10630832 .00000056 00000-0 43386-4 0 9992
2 9846 82.9472 176.3735 0030788 145.4315 27.7863 13.74198456457469
Epoch: 2. März 2026 • Age: 26 hours

Aktueller Status

Höhe 995.2 km
Geschwindigkeit 7.36 km/s
Subsatellitenpunkt 39.20°N, 15.01°W
Typ other

Große Konstellationen

Loading constellations...